FALCON 9 R/B, 56175

Orbit data source: Space-Track

FALCON 9 R/B, 56175 is space debris in HEO originally from a launch on Fri, 07 Apr 2023 UTC launched from the Air Force Eastern Test Range (AFETR). Debris objects in space refer to the collection of defunct objects orbiting the Earth. Examples of debris include non-operational satellites, rocket bodies, and fragments generated from explosions, collisions, or faulty payload assembly.

Loading next visibility...
Identifier
56175, 2023-052B
Orbit
HEO
Country
Flag of USUS
Related business
Manufacturer
SpaceX
Mission
Spacecraft
Bus & Motor
F9ST2, Unknown motor
Mass
~3,000 kg wet, ~3,000 kg dry
Launch date (UTC)
2023-04-07 (3 years ago)
Launch vehicle
Unknown
Launch site
Air Force Eastern Test Range (AFETR)
Object type
Payload
Rocket body
Debris
Shape & HBR
Cyl, 7.8 m
Radar Cross Section
39.980 m², Large (>1 m²)

Expand to show TLE details & history
Last TLE update: 19 hours ago

TLE from 19 hours ago
0 FALCON 9 R/B
1 56175U 23052B   25310.95084403  .00054606  63843-6  15047-2 0  9990
2 56175  27.0688 281.9935 6314805 346.0090   2.3702  3.65039142 29977
Epoch: 2025-11-06T22:49Z
TLE epoch observation values (Epoch: 2025-11-06T22:49:12.924Z)
Latitude
0.00042°
Longitude
-106.73276°
Altitude
266.69 km
Speed
9.879 km/s
True Right ascension
18h 47m 53s
True Declination
0° 00' 01"
Sunlit
Object was in daylight at epoch
Visualization orbit readout
Latitude
Unknown
Longitude
Unknown
Altitude
Unknown
Speed
Unknown
Apparent Right ascension
Unknown
Apparent Declination
Unknown
Sunlit
N/A
Visualization observer readout
Local Sidereal Time
13:52:24
Azimuth
Unknown
Elevation
Unknown
Doppler factor
Unknown
Orbital elements
Apogee altitude
22,696.444 km
Perigee altitude
189.242 km
Semi-major axis
17,820.98 km
Eccentricity
0.63148
Inclination
27.0688°
RAAN
281.9935°
Arg. of periapsis
346.009°
True anomaly
13.43673°
Mean anomaly
2.3702°
Eccentric anomaly
6.4088°
Mean motion
0.91232 °/min
Orbital period
394.6 mins
BSTAR
0.0015047
Loading maneuver chart data...
Computing Atmospheric mass density...
Loading historical data...
Loading historical data...
Loading historical data...
Loading historical data...
Loading historical data...
Loading historical data...
Loading historical data...
Other satellites on launch #52 in the year 2023 (2023-04-07 UTC)

Documentation

Showing up to 5 results
|